Showing default

DMC 3-FM3, 40717

Orbit data source: Space-Track

DMC 3-FM3, 40717 is a payload satellite owned by DMCii (UK) in SSO that was launched on Fri, 10 Jul 2015 UTC via a PSLV-XL launch vehicle from the Sirharikota (SRI). Payload-class satellites include a variety of spacecraft equipped with specific instruments for various scientific and technological missions. These include communications satellites like Starlink; space stations such as the ISS; scientific satellites like the Hubble; Earth observation satellites from companies like Planet Labs, Umbra, and HawkEye 360; GPS; miniature CubeSats for education and research; and military/defense satellites.

Loading next visibility...
Identifier
40717, 2015-032C
Orbit
SSO
Country
Flag of UKUK
Related business
Manufacturer
SSTL (Astrium)
Mission
Operational Commercial Imaging
Bus & Motor
SSTL-300S1, Unknown motor
Mass
447 kg wet, 435 kg dry
Launch date (UTC)
2015-07-10 (11 years ago)
Launch vehicle
PSLV-XL
Launch site
Sirharikota (SRI)
Object type
Payload
Rocket body
Debris
Shape & HBR
Hept Cyl + Cyl, 1.3 m
Radar Cross Section
2.356 m², Large (>1 m²)

Expand to show TLE details & history
Last TLE update: 7 hours ago

TLE from 7 hours ago
0 DMC 3-FM3
1 40717U 15032C   26126.89822125  .00000130  00000-0  20886-4 0  9996
2 40717  97.6619 356.9537 0004883 177.8967 182.2270 14.85695238583789
Epoch: 2026-05-06T21:33Z
TLE epoch observation values (Epoch: 2026-05-06T21:33:26.315Z)
Latitude
-0.00001°
Longitude
168.84194°
Altitude
617.852 km
Speed
7.548 km/s
True Right ascension
23h 47m 48s
True Declination
0° 00' 00"
Sunlit
Object was in daylight at epoch
Visualization orbit readout
Latitude
Unknown
Longitude
Unknown
Altitude
Unknown
Speed
Unknown
Apparent Right ascension
Unknown
Apparent Declination
Unknown
Sunlit
N/A
Visualization observer readout
Local Sidereal Time
13:01:56
Azimuth
Unknown
Elevation
Unknown
Doppler factor
Unknown
Orbital elements
Apogee altitude
611.839 km
Perigee altitude
605.016 km
Semi-major axis
6,986.564 km
Eccentricity
0.00049
Inclination
97.6619°
RAAN
356.9537°
Arg. of periapsis
177.8967°
True anomaly
182.22483°
Mean anomaly
182.227°
Eccentric anomaly
182.22591°
Mean motion
3.71662 °/min
Orbital period
96.86 mins
BSTAR
0.000020886
Loading maneuver chart data...
Computing Atmospheric mass density...
Loading historical data...
Loading historical data...
Loading historical data...
Loading historical data...
Loading historical data...
Loading historical data...
Loading historical data...
Other satellites on launch #32 in the year 2015 (2015-07-10 UTC)

Documentation

Showing up to 5 results
|